{"data":{"norad_id":55491,"epoch":"2026-05-24T23:39:24.658848Z","epoch_age_seconds":86579,"freshness":"FRESH","line1":"1 55491U 23015AU  26144.98570207  .00000365  00000+0  22779-4 0  9994","line2":"2 55491  43.0011 250.5212 0001195 273.9045  86.1670 15.27576077182475","mean_motion":15.27576077,"eccentricity":0.0001195,"inclination_deg":43.0011,"raan_deg":250.5212,"arg_perigee_deg":273.9045,"mean_anomaly_deg":86.167,"bstar":2.2779e-5,"rev_number":18247,"period_min":94.266990802056,"perigee_km":482.24092979585,"apogee_km":483.88075608032,"semimajor_km":6861.1978429381,"source":"CELESTRAK","updated_at":"2026-05-25T13:38:17.811332Z"}}